Eindhoven, Netherlands

2:27 AM CEST on April 24, 2017 (GMT +0200)
Eindhoven Air Base

Weather History for EHEH - December, 2012

Change the Weather History Date:

Friday, December 21, 2012

  Actual Average Record
Temperature  
Mean Temperature 42 °F -  
Max Temperature 49 °F 41 °F 53 °F (2015)
Min Temperature 36 °F 31 °F 15 °F (2010)
Degree Days  
Heating Degree Days 22    
Moisture  
Dew Point 44 °F    
Average Humidity 98    
Maximum Humidity 100    
Minimum Humidity 93    
Precipitation  
Precipitation 0.00 in - - ()
Sea Level Pressure  
Sea Level Pressure 29.83 in    
Wind  
Wind Speed 6 mph ()    
Max Wind Speed 9 mph    
Max Gust Speed -    
Visibility 3.1 miles    
Events Rain    
Averages and records for this station are not official NWS values.
T = Trace of Precipitation, MM = Missing Value Source: Averaged Metar Reports

Daily Weather History Graph

Daily Weather History Graph

Search for Another Location

Airport or City:

Trip Planner

Search our weather history database for the weather conditions in past years. The results will help you decide how hot, cold, wet, or windy it might be!

Date:

Astronomy

Dec. 21, 2012 Rise Set
Actual Time 8:41 AM CET 4:31 PM CET
Civil Twilight 8:01 AM CET 5:12 PM CET
Nautical Twilight 7:18 AM CET 5:55 PM CET
Astronomical Twilight 6:37 AM CET 6:35 PM CET
Moon 12:40 PM CET (12/21) 1:40 AM CET (12/21)
Length of Visible Light 9h 10m
Length of Day
7h 50m
Waxing Gibbous, 62% of the Moon is Illuminated
Dec 21
Waxing Gibbous
Dec 28
Full
Jan 5
Last Quarter
Jan 11
New
Jan 19
First Quarter

Hourly Weather History & Observations

Time (CET) Temp. Windchill Dew Point Humidity Pressure Visibility Wind Dir Wind Speed Gust Speed Precip Events Conditions
12:06 AM 37.4 °F 31.4 °F 37.4 °F 100% 29.71 in - ESE 8.1 mph - N/A Rain Light Rain
12:17 AM 37.4 °F 31.4 °F 37.4 °F 100% 29.71 in - ESE 8.1 mph - N/A   Heavy Drizzle
12:25 AM 37.4 °F 31.4 °F 37.4 °F 100% 29.71 in - ESE 8.1 mph - N/A Rain Light Rain
12:35 AM 37.4 °F 31.4 °F 37.4 °F 100% 29.71 in - ESE 8.1 mph - N/A Rain Light Rain
12:55 AM 37.4 °F 31.4 °F 37.4 °F 100% 29.71 in - ESE 8.1 mph - N/A   Heavy Drizzle
1:00 AM 37 °F - 37 °F 98% 29.73 in 1 mi ESE 8.9 mph - - Rain Heavy Drizzle
1:25 AM 37.4 °F 32.1 °F 37.4 °F 100% 29.71 in 1.9 mi SE 6.9 mph - N/A Rain Light Rain
1:38 AM 37.4 °F 32.1 °F 37.4 °F 100% 29.71 in - SE 6.9 mph - N/A   Overcast
1:55 AM 37.4 °F 31.4 °F 37.4 °F 100% 29.71 in 2.8 mi ESE 8.1 mph - N/A Rain Light Rain
2:11 AM 37.4 °F 32.1 °F 37.4 °F 100% 29.71 in - SE 6.9 mph - N/A   Overcast
2:25 AM 37.4 °F 32.1 °F 37.4 °F 100% 29.71 in 1.6 mi SE 6.9 mph - N/A Rain Light Rain
2:55 AM 37.4 °F 32.1 °F 37.4 °F 100% 29.71 in 1.2 mi SE 6.9 mph - N/A Rain Light Rain
3:02 AM 37.4 °F 32.8 °F 37.4 °F 100% 29.71 in 1.6 mi SE 5.8 mph - N/A   Drizzle
3:25 AM 37.4 °F 31.4 °F 37.4 °F 100% 29.71 in 1.7 mi SE 8.1 mph - N/A   Overcast
3:46 AM 37.4 °F 32.1 °F 37.4 °F 100% 29.71 in 1.6 mi SE 6.9 mph - N/A   Overcast
3:50 AM 37.4 °F 32.1 °F 37.4 °F 100% 29.71 in 1.6 mi SE 6.9 mph - N/A   Overcast
3:55 AM 39.2 °F 34.2 °F 39.2 °F 100% 29.71 in 1.6 mi SE 6.9 mph - N/A   Overcast
4:00 AM 38 °F - 38 °F 100% 29.73 in 1 mi SE 6.7 mph - - Rain Heavy Rain
4:01 AM 39.2 °F 35.0 °F 39.2 °F 100% 29.71 in 0.9 mi SE 5.8 mph - N/A Rain Heavy Rain Showers
4:11 AM 39.2 °F 35.0 °F 39.2 °F 100% 29.71 in 1.4 mi SE 5.8 mph - N/A   Drizzle
4:25 AM 39.2 °F 35.9 °F 39.2 °F 100% 29.71 in 1.4 mi SE 4.6 mph - N/A Rain Light Rain
4:36 AM 39.2 °F 37.0 °F 39.2 °F 100% 29.71 in 1.2 mi SE 3.5 mph - N/A   Overcast
4:37 AM 39.2 °F 37.0 °F 39.2 °F 100% 29.71 in 1.2 mi SE 3.5 mph - N/A   Overcast
4:45 AM 39.2 °F 35.9 °F 39.2 °F 100% 29.71 in 1.6 mi SE 4.6 mph - N/A   Overcast
4:55 AM 39.2 °F 35.9 °F 39.2 °F 100% 29.71 in 1.6 mi SE 4.6 mph - N/A   Overcast
4:58 AM 39.2 °F 35.9 °F 39.2 °F 100% 29.71 in 1.6 mi SE 4.6 mph - N/A Rain Light Rain
5:10 AM 39.2 °F 37.0 °F 39.2 °F 100% 29.71 in 1.5 mi SE 3.5 mph - N/A Rain Light Rain
5:14 AM 39.2 °F 37.0 °F 39.2 °F 100% 29.71 in 1.5 mi SE 3.5 mph - N/A Rain Light Rain Showers
5:19 AM 39.2 °F 35.9 °F 39.2 °F 100% 29.71 in 1.5 mi SE 4.6 mph - N/A   Overcast
5:25 AM 39.2 °F 37.0 °F 39.2 °F 100% 29.71 in 1.5 mi SE 3.5 mph - N/A   Overcast
5:55 AM 41.0 °F 39.0 °F 41.0 °F 100% 29.71 in 1.6 mi SSE 3.5 mph - N/A   Overcast
5:59 AM 41.0 °F 39.0 °F 41.0 °F 100% 29.71 in 1.5 mi SE 3.5 mph - N/A   Overcast
6:25 AM 41.0 °F - 41.0 °F 100% 29.71 in 1.4 mi SSE 2.3 mph - N/A   Mostly Cloudy
6:40 AM 41.0 °F 39.0 °F 41.0 °F 100% 29.71 in 1.3 mi SSE 3.5 mph - N/A   Light Drizzle
6:44 AM 41.0 °F 39.0 °F 41.0 °F 100% 29.71 in 1.3 mi South 3.5 mph - N/A   Light Drizzle
6:47 AM 41.0 °F 39.0 °F 41.0 °F 100% 29.71 in 1.3 mi South 3.5 mph - N/A   Light Drizzle
6:55 AM 41.0 °F 39.0 °F 41.0 °F 100% 29.71 in 1.3 mi SSE 3.5 mph - N/A   Mostly Cloudy
7:00 AM 42 °F - 42 °F 99% 29.73 in 1 mi South 4.5 mph - - Rain Drizzle
7:19 AM 42.8 °F 40.1 °F 42.8 °F 100% 29.71 in 1.5 mi South 4.6 mph - N/A   Overcast
7:25 AM 42.8 °F 41.1 °F 42.8 °F 100% 29.71 in 1.5 mi South 3.5 mph - N/A   Overcast
7:34 AM 42.8 °F 41.1 °F 42.8 °F 100% 29.71 in 1.6 mi South 3.5 mph - N/A   Overcast
7:55 AM 42.8 °F - 42.8 °F 100% 29.74 in 1.7 mi South 2.3 mph - N/A   Overcast
8:25 AM 44.6 °F 42.2 °F 44.6 °F 100% 29.74 in 2.2 mi SSW 4.6 mph - N/A   Overcast
8:37 AM 44.6 °F 41.4 °F 44.6 °F 100% 29.74 in - SW 5.8 mph - N/A   Overcast
8:38 AM 44.6 °F 40.7 °F 44.6 °F 100% 29.74 in - SW 6.9 mph - N/A   Overcast
8:55 AM 46.4 °F 42.9 °F 46.4 °F 100% 29.74 in - SW 6.9 mph - N/A   Overcast
9:12 AM 46.4 °F 42.4 °F 46.4 °F 100% 29.74 in - SW 8.1 mph - N/A   Overcast
9:17 AM 46.4 °F 42.9 °F 46.4 °F 100% 29.74 in 2.2 mi SW 6.9 mph - N/A   Overcast
9:25 AM 46.4 °F 42.9 °F 46.4 °F 100% 29.74 in - WSW 6.9 mph - N/A   Overcast
9:55 AM 46.4 °F 43.5 °F 46.4 °F 100% 29.77 in - WSW 5.8 mph - N/A   Overcast
10:00 AM 46 °F - 46 °F 100% 29.79 in 2 mi WSW 4.5 mph - -   Mist
10:25 AM 46.4 °F 44.3 °F 46.4 °F 100% 29.77 in 1.9 mi SW 4.6 mph - N/A   Overcast
10:43 AM 46.4 °F 45.2 °F 46.4 °F 100% 29.80 in - SW 3.5 mph - N/A   Overcast
10:55 AM 46.4 °F 44.3 °F 46.4 °F 100% 29.80 in - SSW 4.6 mph - N/A   Overcast
11:08 AM 46.4 °F 43.5 °F 46.4 °F 100% 29.80 in 2.2 mi SW 5.8 mph - N/A   Overcast
11:25 AM 46.4 °F 44.3 °F 46.4 °F 100% 29.80 in - SW 4.6 mph - N/A   Overcast
11:41 AM 46.4 °F 43.5 °F 46.4 °F 100% 29.80 in - SSW 5.8 mph - N/A   Overcast
11:55 AM 46.4 °F 42.4 °F 46.4 °F 100% 29.80 in - SW 8.1 mph - N/A   Overcast
12:25 PM 46.4 °F 42.4 °F 46.4 °F 100% 29.80 in 2.2 mi SW 8.1 mph - N/A   Overcast
12:39 PM 46.4 °F 42.9 °F 46.4 °F 100% 29.83 in - WSW 6.9 mph - N/A   Overcast
12:55 PM 48.2 °F - 46.4 °F 93% 29.83 in - WSW 5.8 mph - N/A   Overcast
1:00 PM 47 °F - 47 °F 100% 29.84 in 3 mi WSW 6.7 mph - -   Mist
1:25 PM 48.2 °F - 46.4 °F 93% 29.83 in 3.1 mi SW 4.6 mph - N/A   Mostly Cloudy
1:34 PM 48.2 °F - 46.4 °F 93% 29.83 in 3.1 mi SW 4.6 mph - N/A   Overcast
1:40 PM 48.2 °F - 48.2 °F 100% 29.83 in 3.1 mi SW 4.6 mph - N/A   Overcast
1:55 PM 48.2 °F - 46.4 °F 93% 29.83 in 3.1 mi SW 5.8 mph - N/A   Overcast
1:56 PM 48.2 °F - 46.4 °F 93% 29.83 in 3.7 mi SW 5.8 mph - N/A   Overcast
2:04 PM 48.2 °F - 48.2 °F 100% 29.83 in 3.7 mi SW 6.9 mph - N/A   Overcast
2:05 PM 48.2 °F - 48.2 °F 100% 29.83 in 3.7 mi SW 6.9 mph - N/A   Overcast
2:11 PM 48.2 °F - 48.2 °F 100% 29.83 in 4.3 mi SSW 6.9 mph - N/A   Overcast
2:25 PM 48.2 °F - 48.2 °F 100% 29.83 in 5.0 mi SW 6.9 mph - N/A   Mostly Cloudy
2:32 PM 50.0 °F - 48.2 °F 94% 29.83 in 5.0 mi SSW 5.8 mph - N/A   Mostly Cloudy
2:38 PM 48.2 °F - 46.4 °F 93% 29.83 in 5.6 mi SW 6.9 mph - N/A   Overcast
2:43 PM 48.2 °F - 46.4 °F 93% 29.83 in 5.6 mi SW 6.9 mph - N/A   Overcast
2:44 PM 48.2 °F - 46.4 °F 93% 29.83 in 5.6 mi SW 6.9 mph - N/A   Overcast
2:49 PM 48.2 °F - 46.4 °F 93% 29.83 in 5.6 mi SW 5.8 mph - N/A   Overcast
2:55 PM 48.2 °F - 46.4 °F 93% 29.83 in 5.6 mi SW 5.8 mph - N/A   Mostly Cloudy
3:04 PM 48.2 °F - 46.4 °F 93% 29.83 in 5.6 mi SW 8.1 mph - N/A   Mostly Cloudy
3:24 PM 48.2 °F - 46.4 °F 93% 29.86 in 5.0 mi SW 4.6 mph - N/A   Overcast
3:25 PM 48.2 °F - 46.4 °F 93% 29.86 in 5.0 mi SW 4.6 mph - N/A   Mostly Cloudy
3:30 PM 48.2 °F - 46.4 °F 93% 29.86 in 5.0 mi SW 3.5 mph - N/A   Overcast
3:33 PM 48.2 °F - 46.4 °F 93% 29.86 in 5.0 mi SW 3.5 mph - N/A   Overcast
3:34 PM 48.2 °F - 46.4 °F 93% 29.86 in 4.3 mi SSW 4.6 mph - N/A   Overcast
3:35 PM 48.2 °F - 46.4 °F 93% 29.86 in 5.0 mi SSW 4.6 mph - N/A   Overcast
3:42 PM 48.2 °F - 46.4 °F 93% 29.86 in 4.3 mi SSW 3.5 mph - N/A   Overcast
3:43 PM 48.2 °F - 46.4 °F 93% 29.86 in 5.0 mi SSW 3.5 mph - N/A   Overcast
3:55 PM 48.2 °F - 46.4 °F 93% 29.86 in 4.3 mi South 3.5 mph - N/A   Overcast
3:56 PM 48.2 °F - 46.4 °F 93% 29.86 in 5.0 mi South 3.5 mph - N/A   Overcast
4:00 PM 47 °F - 46 °F 96% 29.87 in 4 mi South 2.2 mph - -   Mist
4:05 PM 48.2 °F - 46.4 °F 93% 29.86 in 5.0 mi South 3.5 mph - N/A   Overcast
4:06 PM 48.2 °F - 46.4 °F 93% 29.86 in 4.3 mi South 3.5 mph - N/A   Overcast
4:25 PM 48.2 °F - 46.4 °F 93% 29.86 in 4.3 mi South 4.6 mph - N/A   Overcast
4:34 PM 48.2 °F - 46.4 °F 93% 29.86 in 5.0 mi South 4.6 mph - N/A   Overcast
4:37 PM 48.2 °F - 46.4 °F 93% 29.86 in 4.3 mi South 5.8 mph - N/A   Overcast
4:42 PM 48.2 °F - 46.4 °F 93% 29.86 in 4.3 mi South 4.6 mph - N/A   Mostly Cloudy
4:43 PM 48.2 °F - 46.4 °F 93% 29.86 in 4.3 mi South 4.6 mph - N/A   Mostly Cloudy
4:47 PM 46.4 °F 44.3 °F 46.4 °F 100% 29.86 in 5.0 mi South 4.6 mph - N/A   Mostly Cloudy
4:49 PM 46.4 °F 44.3 °F 46.4 °F 100% 29.86 in 4.3 mi South 4.6 mph - N/A   Mostly Cloudy
4:50 PM 46.4 °F 44.3 °F 46.4 °F 100% 29.86 in 4.3 mi South 4.6 mph - N/A   Mostly Cloudy
4:55 PM 46.4 °F 44.3 °F 46.4 °F 100% 29.86 in 5.0 mi South 4.6 mph - N/A   Mostly Cloudy
5:03 PM 46.4 °F 44.3 °F 46.4 °F 100% 29.86 in - South 4.6 mph - N/A   Mostly Cloudy
5:04 PM 46.4 °F 44.3 °F 46.4 °F 100% 29.86 in 4.3 mi South 4.6 mph - N/A   Mostly Cloudy
5:15 PM 46.4 °F 43.5 °F 46.4 °F 100% 29.86 in 4.3 mi South 5.8 mph - N/A   Light Drizzle
5:25 PM 46.4 °F 44.3 °F 46.4 °F 100% 29.86 in 4.3 mi South 4.6 mph - N/A   Overcast
5:41 PM 46.4 °F 43.5 °F 46.4 °F 100% 29.86 in 2.8 mi South 5.8 mph - N/A   Mostly Cloudy
5:55 PM 46.4 °F 43.5 °F 46.4 °F 100% 29.89 in - South 5.8 mph - N/A Rain Light Rain
5:59 PM 46.4 °F 43.5 °F 46.4 °F 100% 29.89 in - South 5.8 mph - N/A   Mostly Cloudy
6:01 PM 46.4 °F 43.5 °F 46.4 °F 100% 29.89 in 3.1 mi South 5.8 mph - N/A   Mostly Cloudy
6:13 PM 46.4 °F 43.5 °F 46.4 °F 100% 29.89 in 3.1 mi SSW 5.8 mph - N/A   Overcast
6:19 PM 46.4 °F 42.9 °F 46.4 °F 100% 29.89 in - SSW 6.9 mph - N/A   Overcast
6:20 PM 46.4 °F 42.9 °F 46.4 °F 100% 29.89 in 3.1 mi SSW 6.9 mph - N/A Rain Light Rain
6:21 PM 46.4 °F 42.9 °F 46.4 °F 100% 29.89 in 3.1 mi SSW 6.9 mph - N/A   Mostly Cloudy
6:25 PM 46.4 °F 42.9 °F 46.4 °F 100% 29.89 in 3.1 mi SSW 6.9 mph - N/A   Mostly Cloudy
6:33 PM 46.4 °F 42.9 °F 46.4 °F 100% 29.89 in 3.1 mi SSW 6.9 mph - N/A   Light Drizzle
6:34 PM 46.4 °F 42.9 °F 46.4 °F 100% 29.89 in 3.1 mi SSW 6.9 mph - N/A   Light Drizzle
6:46 PM 46.4 °F 42.9 °F 46.4 °F 100% 29.89 in 3.7 mi SSW 6.9 mph - N/A   Mostly Cloudy
6:55 PM 46.4 °F 43.5 °F 46.4 °F 100% 29.89 in 3.7 mi SW 5.8 mph - N/A   Mostly Cloudy
6:57 PM 46.4 °F 43.5 °F 46.4 °F 100% 29.89 in - SW 5.8 mph - N/A   Mostly Cloudy
7:00 PM 47 °F - 47 °F 98% 29.92 in 3 mi SW 6.7 mph - - Rain Rain
7:25 PM 48.2 °F - 46.4 °F 93% 29.92 in - WSW 6.9 mph - N/A Rain Light Rain
7:30 PM 46.4 °F 43.5 °F 46.4 °F 100% 29.92 in 3.1 mi WSW 5.8 mph - N/A Rain Light Rain
7:34 PM 46.4 °F 43.5 °F 46.4 °F 100% 29.92 in 3.1 mi West 5.8 mph - N/A Rain Light Rain
7:35 PM 46.4 °F 43.5 °F 46.4 °F 100% 29.92 in 3.1 mi WSW 5.8 mph - N/A Rain Light Rain
7:40 PM 48.2 °F - 46.4 °F 93% 29.92 in - WSW 5.8 mph - N/A Rain Light Rain
7:55 PM 46.4 °F 43.5 °F 46.4 °F 100% 29.92 in 3.1 mi WSW 5.8 mph - N/A   Mostly Cloudy
8:19 PM 46.4 °F 44.3 °F 46.4 °F 100% 29.92 in 3.1 mi WSW 4.6 mph - N/A Rain Light Rain
8:21 PM 46.4 °F 44.3 °F 46.4 °F 100% 29.92 in - WSW 4.6 mph - N/A   Light Drizzle
8:25 PM 46.4 °F 43.5 °F 46.4 °F 100% 29.92 in - WSW 5.8 mph - N/A   Light Drizzle
8:27 PM 46.4 °F 43.5 °F 46.4 °F 100% 29.92 in 3.1 mi WSW 5.8 mph - N/A   Light Drizzle
8:30 PM 46.4 °F 44.3 °F 46.4 °F 100% 29.92 in 3.1 mi WSW 4.6 mph - N/A   Mostly Cloudy
8:32 PM 46.4 °F 44.3 °F 46.4 °F 100% 29.92 in - WSW 4.6 mph - N/A   Mostly Cloudy
8:36 PM 46.4 °F 44.3 °F 46.4 °F 100% 29.92 in 3.1 mi SW 4.6 mph - N/A   Overcast
8:38 PM 46.4 °F 44.3 °F 46.4 °F 100% 29.92 in - SW 4.6 mph - N/A   Mostly Cloudy
8:40 PM 46.4 °F 44.3 °F 46.4 °F 100% 29.92 in 3.1 mi SW 4.6 mph - N/A   Overcast
8:55 PM 46.4 °F 44.3 °F 46.4 °F 100% 29.92 in 2.8 mi SSW 4.6 mph - N/A   Overcast
9:10 PM 46.4 °F 42.9 °F 46.4 °F 100% 29.95 in - SSW 6.9 mph - N/A   Overcast
9:11 PM 46.4 °F 42.9 °F 44.6 °F 93% 29.95 in 3.1 mi SSW 6.9 mph - N/A   Overcast
9:20 PM 44.6 °F 40.7 °F 44.6 °F 100% 29.95 in - SW 6.9 mph - N/A   Overcast
9:21 PM 44.6 °F 40.7 °F 44.6 °F 100% 29.95 in 3.1 mi SW 6.9 mph - N/A   Overcast
9:25 PM 44.6 °F 40.7 °F 44.6 °F 100% 29.95 in 3.1 mi SW 6.9 mph - N/A   Overcast
9:29 PM 44.6 °F 40.7 °F 44.6 °F 100% 29.95 in 3.1 mi SW 6.9 mph - N/A   Overcast
9:37 PM 44.6 °F 40.7 °F 44.6 °F 100% 29.95 in - SW 6.9 mph - N/A   Overcast
9:41 PM 44.6 °F 40.7 °F 44.6 °F 100% 29.95 in 3.1 mi SW 6.9 mph - N/A   Overcast
9:47 PM 44.6 °F 40.7 °F 44.6 °F 100% 29.95 in - SW 6.9 mph - N/A   Overcast
9:51 PM 44.6 °F 40.7 °F 44.6 °F 100% 29.95 in 3.1 mi SW 6.9 mph - N/A   Mostly Cloudy
9:55 PM 44.6 °F 40.7 °F 44.6 °F 100% 29.95 in - SW 6.9 mph - N/A   Overcast
9:59 PM 44.6 °F 40.7 °F 44.6 °F 100% 29.95 in 3.1 mi SW 6.9 mph - N/A   Mostly Cloudy
10:00 PM 46 °F - 45 °F 96% 29.96 in 3 mi SW 6.7 mph - -   Mist
10:07 PM 46.4 °F 42.4 °F 46.4 °F 100% 29.95 in - SW 8.1 mph - N/A   Overcast
10:13 PM 46.4 °F 42.4 °F 46.4 °F 100% 29.95 in - SW 8.1 mph - N/A   Overcast
10:17 PM 46.4 °F 42.4 °F 46.4 °F 100% 29.95 in 3.1 mi SW 8.1 mph - N/A   Mostly Cloudy
10:21 PM 46.4 °F 42.4 °F 46.4 °F 100% 29.95 in - SW 8.1 mph - N/A   Overcast
10:25 PM 46.4 °F 42.4 °F 46.4 °F 100% 29.95 in 3.1 mi SW 8.1 mph - N/A   Overcast
10:34 PM 46.4 °F 42.4 °F 46.4 °F 100% 29.95 in 3.1 mi SW 8.1 mph - N/A   Overcast
10:42 PM 46.4 °F 41.9 °F 46.4 °F 100% 29.95 in - SW 9.2 mph - N/A   Overcast
10:46 PM 46.4 °F 41.9 °F 46.4 °F 100% 29.95 in 3.1 mi SW 9.2 mph - N/A   Overcast
10:55 PM 46.4 °F 42.4 °F 46.4 °F 100% 29.95 in 3.1 mi SW 8.1 mph - N/A   Overcast
11:08 PM 46.4 °F 41.9 °F 46.4 °F 100% 29.95 in 3.7 mi SW 9.2 mph - N/A   Overcast
11:25 PM 46.4 °F 41.9 °F 46.4 °F 100% 29.98 in 3.7 mi SW 9.2 mph - N/A   Overcast
11:35 PM 46.4 °F 42.4 °F 46.4 °F 100% 29.98 in 3.7 mi SW 8.1 mph - N/A   Mostly Cloudy
11:40 PM 46.4 °F 41.9 °F 46.4 °F 100% 29.98 in 3.7 mi SW 9.2 mph - N/A   Mostly Cloudy
11:55 PM 46.4 °F 42.4 °F 44.6 °F 93% 29.98 in 3.7 mi SW 8.1 mph - N/A   Overcast
11:56 PM 46.4 °F 41.9 °F 44.6 °F 93% 29.98 in 3.7 mi SW 9.2 mph - N/A   Mostly Cloudy